Time,TemperatureF,DewpointF,PressureIn,WindDirection,WindDirectionDegrees,WindSpeedMPH,WindSpeedGustMPH,Humidity,HourlyPrecipIn,Conditions,Clouds,dailyrainin,SoftwareType,DateUTC
2013-05-29 00:01:00,78.3,48.0,29.25,North,359,1.0,-999.0,34,-99.99,,,0.00,weatherlink.com 1.10,2013-05-29 07:01:00,
2013-05-29 00:16:00,77.9,47.0,29.26,North,359,2.0,-999.0,34,-99.99,,,0.00,weatherlink.com 1.10,2013-05-29 07:16:00,
2013-05-29 00:31:00,77.4,47.0,29.26,North,359,0.0,-999.0,34,-99.99,,,0.00,weatherlink.com 1.10,2013-05-29 07:31:00,
2013-05-29 00:46:00,77.2,47.0,29.27,North,359,3.0,-999.0,34,-99.99,,,0.00,weatherlink.com 1.10,2013-05-29 07:46:00,
2013-05-29 01:01:00,77.6,47.0,29.27,North,357,0.0,-999.0,34,-99.99,,,0.00,weatherlink.com 1.10,2013-05-29 08:01:00,
2013-05-29 01:16:00,77.7,46.0,29.27,North,357,0.0,-999.0,32,-99.99,,,0.00,weatherlink.com 1.10,2013-05-29 08:16:00,
2013-05-29 01:31:00,77.4,44.0,29.27,North,357,3.0,-999.0,31,-99.99,,,0.00,weatherlink.com 1.10,2013-05-29 08:31:00,
2013-05-29 01:46:00,77.2,43.0,29.27,North,357,1.0,-999.0,30,-99.99,,,0.00,weatherlink.com 1.10,2013-05-29 08:46:00,
2013-05-29 02:01:00,77.0,44.0,29.27,North,359,0.0,-999.0,31,-99.99,,,0.00,weatherlink.com 1.10,2013-05-29 09:01:00,
2013-05-29 02:16:00,77.0,45.0,29.27,North,359,1.0,-999.0,32,-99.99,,,0.00,weatherlink.com 1.10,2013-05-29 09:16:00,
2013-05-29 02:31:00,77.0,46.0,29.27,North,359,0.0,-999.0,33,-99.99,,,0.00,weatherlink.com 1.10,2013-05-29 09:31:00,
2013-05-29 02:46:00,76.7,47.0,29.27,North,359,0.0,-999.0,35,-99.99,,,0.00,weatherlink.com 1.10,2013-05-29 09:46:00,
2013-05-29 03:01:00,76.3,47.0,29.27,North,359,0.0,-999.0,36,-99.99,,,0.00,weatherlink.com 1.10,2013-05-29 10:01:00,
2013-05-29 03:16:00,76.1,47.0,29.26,North,359,0.0,-999.0,36,-99.99,,,0.00,weatherlink.com 1.10,2013-05-29 10:16:00,
2013-05-29 03:31:00,76.0,48.0,29.26,North,357,0.0,-999.0,37,-99.99,,,0.00,weatherlink.com 1.10,2013-05-29 10:31:00,
2013-05-29 03:46:00,76.0,48.0,29.26,North,357,0.0,-999.0,37,-99.99,,,0.00,weatherlink.com 1.10,2013-05-29 10:46:00,
2013-05-29 04:01:00,75.8,48.0,29.26,North,357,0.0,-999.0,37,-99.99,,,0.00,weatherlink.com 1.10,2013-05-29 11:01:00,
2013-05-29 04:16:00,75.3,49.0,29.26,North,359,0.0,-999.0,39,-99.99,,,0.00,weatherlink.com 1.10,2013-05-29 11:16:00,
2013-05-29 04:31:00,74.6,48.0,29.26,North,359,0.0,-999.0,39,-99.99,,,0.00,weatherlink.com 1.10,2013-05-29 11:31:00,
2013-05-29 04:46:00,74.0,48.0,29.27,NNW,340,0.0,-999.0,40,-99.99,,,0.00,weatherlink.com 1.10,2013-05-29 11:46:00,
2013-05-29 05:01:00,73.9,48.0,29.27,NW,323,0.0,-999.0,40,-99.99,,,0.00,weatherlink.com 1.10,2013-05-29 12:01:00,
2013-05-29 05:16:00,72.8,50.0,29.28,North,357,0.0,-999.0,44,-99.99,,,0.00,weatherlink.com 1.10,2013-05-29 12:16:00,
2013-05-29 05:31:00,72.3,48.0,29.28,North,357,0.0,-999.0,43,-99.99,,,0.00,weatherlink.com 1.10,2013-05-29 12:31:00,
2013-05-29 05:46:00,72.5,48.0,29.28,North,359,0.0,-999.0,42,-99.99,,,0.00,weatherlink.com 1.10,2013-05-29 12:46:00,
2013-05-29 06:01:00,72.0,48.0,29.29,North,359,1.0,-999.0,42,-99.99,,,0.00,weatherlink.com 1.10,2013-05-29 13:01:00,
2013-05-29 06:16:00,72.3,47.0,29.29,North,359,0.0,-999.0,41,-99.99,,,0.00,weatherlink.com 1.10,2013-05-29 13:16:00,
2013-05-29 06:31:00,73.0,48.0,29.29,North,359,0.0,-999.0,41,-99.99,,,0.00,weatherlink.com 1.10,2013-05-29 13:31:00,
2013-05-29 06:46:00,74.0,47.0,29.30,North,359,0.0,-999.0,39,-99.99,,,0.00,weatherlink.com 1.10,2013-05-29 13:46:00,
2013-05-29 07:01:00,75.4,48.0,29.30,North,359,0.0,-999.0,38,-99.99,,,0.00,weatherlink.com 1.10,2013-05-29 14:01:00,
2013-05-29 07:31:00,78.5,51.0,29.31,North,357,3.0,-999.0,39,-99.99,,,0.00,weatherlink.com 1.10,2013-05-29 14:31:00,
2013-05-29 07:47:00,79.6,50.0,29.30,North,359,1.0,-999.0,36,-99.99,,,0.00,weatherlink.com 1.10,2013-05-29 14:47:00,
2013-05-29 08:02:00,80.3,50.0,29.31,North,359,0.0,-999.0,35,-99.99,,,0.00,weatherlink.com 1.10,2013-05-29 15:02:00,
2013-05-29 08:17:00,80.9,51.0,29.32,North,359,2.0,-999.0,35,-99.99,,,0.00,weatherlink.com 1.10,2013-05-29 15:17:00,
2013-05-29 08:32:00,81.6,51.0,29.33,North,359,4.0,-999.0,34,-99.99,,,0.00,weatherlink.com 1.10,2013-05-29 15:32:00,
2013-05-29 08:47:00,82.4,51.0,29.34,North,357,0.0,-999.0,33,-99.99,,,0.00,weatherlink.com 1.10,2013-05-29 15:47:00,
2013-05-29 09:02:00,83.2,50.0,29.34,North,357,2.0,-999.0,32,-99.99,,,0.00,weatherlink.com 1.10,2013-05-29 16:02:00,
2013-05-29 09:17:00,84.3,51.0,29.34,North,359,0.0,-999.0,31,-99.99,,,0.00,weatherlink.com 1.10,2013-05-29 16:17:00,
2013-05-29 09:32:00,85.7,50.0,29.34,North,357,0.0,-999.0,29,-99.99,,,0.00,weatherlink.com 1.10,2013-05-29 16:32:00,
2013-05-29 09:47:00,86.7,50.0,29.33,North,359,0.0,-999.0,28,-99.99,,,0.00,weatherlink.com 1.10,2013-05-29 16:47:00,
2013-05-29 10:02:00,88.2,49.0,29.33,North,356,3.0,-999.0,26,-99.99,,,0.00,weatherlink.com 1.10,2013-05-29 17:02:00,
2013-05-29 10:17:00,88.8,49.0,29.33,North,356,1.0,-999.0,25,-99.99,,,0.00,weatherlink.com 1.10,2013-05-29 17:17:00,
2013-05-29 10:32:00,89.5,49.0,29.33,North,357,2.0,-999.0,25,-99.99,,,0.00,weatherlink.com 1.10,2013-05-29 17:32:00,
2013-05-29 10:47:00,90.1,46.0,29.33,North,357,1.0,-999.0,22,-99.99,,,0.00,weatherlink.com 1.10,2013-05-29 17:47:00,
2013-05-29 11:02:00,91.0,47.0,29.34,North,357,0.0,-999.0,22,-99.99,,,0.00,weatherlink.com 1.10,2013-05-29 18:02:00,
2013-05-29 11:17:00,91.6,48.0,29.34,North,357,2.0,-999.0,22,-99.99,,,0.00,weatherlink.com 1.10,2013-05-29 18:17:00,
2013-05-29 11:32:00,92.7,47.0,29.33,North,357,6.0,-999.0,21,-99.99,,,0.00,weatherlink.com 1.10,2013-05-29 18:32:00,
2013-05-29 11:47:00,93.2,48.0,29.33,North,356,1.0,-999.0,21,-99.99,,,0.00,weatherlink.com 1.10,2013-05-29 18:47:00,
2013-05-29 12:02:00,94.0,46.0,29.33,North,356,2.0,-999.0,19,-99.99,,,0.00,weatherlink.com 1.10,2013-05-29 19:02:00,
2013-05-29 12:17:00,94.5,45.0,29.33,North,357,3.0,-999.0,18,-99.99,,,0.00,weatherlink.com 1.10,2013-05-29 19:17:00,
2013-05-29 12:32:00,94.9,45.0,29.32,North,357,2.0,-999.0,18,-99.99,,,0.00,weatherlink.com 1.10,2013-05-29 19:32:00,
2013-05-29 12:47:00,95.1,45.0,29.32,North,357,6.0,-999.0,18,-99.99,,,0.00,weatherlink.com 1.10,2013-05-29 19:47:00,
2013-05-29 13:02:00,95.4,46.0,29.31,North,357,2.0,-999.0,18,-99.99,,,0.00,weatherlink.com 1.10,2013-05-29 20:02:00,
2013-05-29 13:17:00,96.1,48.0,29.30,North,357,8.0,-999.0,19,-99.99,,,0.00,weatherlink.com 1.10,2013-05-29 20:17:00,
2013-05-29 13:32:00,96.3,45.0,29.30,North,357,5.0,-999.0,17,-99.99,,,0.00,weatherlink.com 1.10,2013-05-29 20:32:00,
2013-05-29 13:47:00,97.1,48.0,29.29,North,357,3.0,-999.0,19,-99.99,,,0.00,weatherlink.com 1.10,2013-05-29 20:47:00,
2013-05-29 14:02:00,97.5,47.0,29.28,North,356,2.0,-999.0,18,-99.99,,,0.00,weatherlink.com 1.10,2013-05-29 21:02:00,
2013-05-29 14:17:00,97.3,46.0,29.27,North,356,5.0,-999.0,17,-99.99,,,0.00,weatherlink.com 1.10,2013-05-29 21:17:00,
2013-05-29 14:32:00,97.3,47.0,29.27,North,356,5.0,-999.0,18,-99.99,,,0.00,weatherlink.com 1.10,2013-05-29 21:32:00,
2013-05-29 14:47:00,98.2,46.0,29.27,North,357,2.0,-999.0,17,-99.99,,,0.00,weatherlink.com 1.10,2013-05-29 21:47:00,
2013-05-29 15:02:00,98.5,47.0,29.26,North,357,9.0,-999.0,17,-99.99,,,0.00,weatherlink.com 1.10,2013-05-29 22:02:00,
2013-05-29 15:17:00,98.5,47.0,29.25,North,357,9.0,-999.0,17,-99.99,,,0.00,weatherlink.com 1.10,2013-05-29 22:17:00,
2013-05-29 15:32:00,98.7,47.0,29.25,North,357,3.0,-999.0,17,-99.99,,,0.00,weatherlink.com 1.10,2013-05-29 22:32:00,
2013-05-29 15:47:00,98.5,47.0,29.24,North,357,4.0,-999.0,17,-99.99,,,0.00,weatherlink.com 1.10,2013-05-29 22:47:00,
2013-05-29 16:02:00,98.0,45.0,29.23,North,357,4.0,-999.0,16,-99.99,,,0.00,weatherlink.com 1.10,2013-05-29 23:02:00,
2013-05-29 16:17:00,98.7,45.0,29.23,North,357,2.0,-999.0,16,-99.99,,,0.00,weatherlink.com 1.10,2013-05-29 23:17:00,
2013-05-29 16:32:00,98.2,51.0,29.22,North,357,4.0,-999.0,20,-99.99,,,0.00,weatherlink.com 1.10,2013-05-29 23:32:00,
2013-05-29 16:47:00,98.2,49.0,29.21,North,356,4.0,-999.0,19,-99.99,,,0.00,weatherlink.com 1.10,2013-05-29 23:47:00,
2013-05-29 17:02:00,97.8,50.0,29.21,North,356,3.0,-999.0,20,-99.99,,,0.00,weatherlink.com 1.10,2013-05-30 00:02:00,
2013-05-29 17:17:00,97.5,50.0,29.21,North,356,1.0,-999.0,20,-99.99,,,0.00,weatherlink.com 1.10,2013-05-30 00:17:00,
2013-05-29 17:32:00,96.1,48.0,29.21,North,357,9.0,-999.0,19,-99.99,,,0.00,weatherlink.com 1.10,2013-05-30 00:32:00,
2013-05-29 17:47:00,95.6,47.0,29.21,North,357,6.0,-999.0,19,-99.99,,,0.00,weatherlink.com 1.10,2013-05-30 00:47:00,
2013-05-29 18:02:00,95.1,48.0,29.21,North,357,9.0,-999.0,20,-99.99,,,0.00,weatherlink.com 1.10,2013-05-30 01:02:00,
2013-05-29 18:17:00,94.5,48.0,29.21,North,357,10.0,-999.0,20,-99.99,,,0.00,weatherlink.com 1.10,2013-05-30 01:17:00,
2013-05-29 18:32:00,93.6,48.0,29.21,North,357,9.0,-999.0,21,-99.99,,,0.00,weatherlink.com 1.10,2013-05-30 01:32:00,
2013-05-29 18:47:00,92.7,47.0,29.21,North,357,8.0,-999.0,21,-99.99,,,0.00,weatherlink.com 1.10,2013-05-30 01:47:00,
2013-05-29 19:02:00,91.8,49.0,29.21,North,357,5.0,-999.0,23,-99.99,,,0.00,weatherlink.com 1.10,2013-05-30 02:02:00,
2013-05-29 19:17:00,90.7,48.0,29.22,North,354,2.0,-999.0,23,-99.99,,,0.00,weatherlink.com 1.10,2013-05-30 02:17:00,
2013-05-29 19:32:00,89.5,48.0,29.22,North,359,11.0,-999.0,24,-99.99,,,0.00,weatherlink.com 1.10,2013-05-30 02:32:00,
2013-05-29 19:47:00,88.6,47.0,29.22,North,357,7.0,-999.0,24,-99.99,,,0.00,weatherlink.com 1.10,2013-05-30 02:47:00,
2013-05-29 20:02:00,87.8,48.0,29.22,North,357,5.0,-999.0,25,-99.99,,,0.00,weatherlink.com 1.10,2013-05-30 03:02:00,
2013-05-29 20:18:00,87.2,48.0,29.22,North,354,3.0,-999.0,26,-99.99,,,0.00,weatherlink.com 1.10,2013-05-30 03:18:00,
2013-05-29 20:32:00,86.5,48.0,29.22,North,359,3.0,-999.0,26,-99.99,,,0.00,weatherlink.com 1.10,2013-05-30 03:32:00,
2013-05-29 20:47:00,86.5,47.0,29.23,North,357,5.0,-999.0,25,-99.99,,,0.00,weatherlink.com 1.10,2013-05-30 03:47:00,
2013-05-29 21:02:00,85.9,45.0,29.23,North,359,6.0,-999.0,24,-99.99,,,0.00,weatherlink.com 1.10,2013-05-30 04:02:00,
2013-05-29 21:18:00,85.9,42.0,29.23,North,356,1.0,-999.0,21,-99.99,,,0.00,weatherlink.com 1.10,2013-05-30 04:18:00,
2013-05-29 21:33:00,85.7,41.0,29.24,North,356,3.0,-999.0,21,-99.99,,,0.00,weatherlink.com 1.10,2013-05-30 04:33:00,
2013-05-29 21:48:00,85.3,42.0,29.25,NNW,347,5.0,-999.0,22,-99.99,,,0.00,weatherlink.com 1.10,2013-05-30 04:48:00,
2013-05-29 22:03:00,84.7,43.0,29.25,North,357,6.0,-999.0,23,-99.99,,,0.00,weatherlink.com 1.10,2013-05-30 05:03:00,
2013-05-29 22:18:00,84.3,44.0,29.26,North,359,1.0,-999.0,24,-99.99,,,0.00,weatherlink.com 1.10,2013-05-30 05:18:00,
2013-05-29 22:33:00,84.5,43.0,29.25,North,357,6.0,-999.0,23,-99.99,,,0.00,weatherlink.com 1.10,2013-05-30 05:33:00,
2013-05-29 22:48:00,84.3,44.0,29.26,North,359,1.0,-999.0,24,-99.99,,,0.00,weatherlink.com 1.10,2013-05-30 05:48:00,
2013-05-29 23:03:00,84.9,42.0,29.26,North,359,3.0,-999.0,22,-99.99,,,0.00,weatherlink.com 1.10,2013-05-30 06:03:00,
2013-05-29 23:18:00,84.7,42.0,29.26,North,359,2.0,-999.0,22,-99.99,,,0.00,weatherlink.com 1.10,2013-05-30 06:18:00,
2013-05-29 23:33:00,84.7,41.0,29.26,North,359,0.0,-999.0,21,-99.99,,,0.00,weatherlink.com 1.10,2013-05-30 06:33:00,
2013-05-29 23:48:00,84.1,41.0,29.26,North,359,2.0,-999.0,22,-99.99,,,0.00,weatherlink.com 1.10,2013-05-30 06:48:00,